sat.trackr.live / text

‹ back to catalog

STARLINK-32195

NORAD 60440 · 2024-144R

PAYLOAD ACTIVE UNKNOWN

§ Identity

Operator
Country
US
Launch date
2024-08-12
Launch site
AFETR
Launch vehicle
Mass (kg)
RCS (m²)

Purposes: comms

External: N2YO · Heavens-Above · Gunter

§ Orbital elements

Epoch: 2026-05-24T21:52:34.883040Z

Period
93.85 min
Inclination
53.1618°
Eccentricity
0.0001147
Mean motion
15.34390020 rev/d
Perigee alt
461.9 km
Apogee alt
463.5 km
Semi-major
6,840.9 km
B*
1.4051e-5
RAAN
222.0557°
Arg perigee
93.6591°
Mean anomaly
266.4543°
Rev number
10,099

§ Raw data

STARLINK-321951 60440U 24144R   26144.91151485  .00000098  00000+0  14051-4 0  99912 60440  53.1618 222.0557 0001147  93.6591 266.4543 15.34390020100995

JSON: /api/v1/satellites/60440 · /tle

For live sub-satellite position, see the globe view (requires WebGL).

§ Visibility from observer

Set your observer location to see the next 7 days of passes ≥ 10°. The values pass through the URL so the page stays shareable.

No JS? Fill the form by hand. The geolocation button needs JavaScript.